カタログに戻る

STARLINK-4125

運用中通信VLEO
NORAD 53244·PAYLOAD·🇺🇸 United States

打ち上げ Jul 24, 2022 から Cape Canaveral Space Force Station

Loading…

次のパス (今後24時間)

TLE

最新Source: CelesTrak SupGP

元期: Sep 15, 2026, 03:01 UTC

1 53244C 22086C   26258.12618056 -.00036393  00000+0 -11706-2 0  2588
2 53244  53.1580  61.8405 0001067  87.0028 207.3106 15.31713631    16

AllMySatでSTARLINK-4125をリアルタイム追跡

Download on the App Store